This is the latest recevied weather packets stored in our database for station/object KJ6LNH-1. If no packets are shown the sender has not sent any weather packets the latest 10 day(s).
| Time | Temp. | Humidity | Pressure | Rain* | Wind** | Luminosity | Snow |
|---|---|---|---|---|---|---|---|
| 1778197807 | 25.56° C | 50% | 1014.3 hPa | 0 mm | - | - | - |
| 1778197507 | 26.11° C | 48% | 1014.3 hPa | 0 mm | - | - | - |
| 1778196908 | 26.67° C | 46% | 1014.4 hPa | 0 mm | - | - | - |
| 1778196607 | 26.67° C | 46% | 1014.4 hPa | 0 mm | - | - | - |
| 1778196307 | 26.11° C | 46% | 1014.4 hPa | 0 mm | - | - | - |
| 1778196008 | 26.67° C | 45% | 1014.4 hPa | 0 mm | - | - | - |
| 1778195707 | 27.22° C | 45% | 1014.4 hPa | 0 mm | - | - | - |
| 1778195109 | 27.22° C | 44% | 1014.5 hPa | 0 mm | - | - | - |
| 1778194808 | 27.22° C | 45% | 1014.5 hPa | 0 mm | - | - | - |
| 1778194509 | 27.22° C | 44% | 1014.6 hPa | 0 mm | - | - | - |
| 1778194207 | 27.22° C | 44% | 1014.6 hPa | 0 mm | - | - | - |
| 1778193907 | 27.22° C | 44% | 1014.6 hPa | 0 mm | - | - | - |
| 1778193010 | 26.67° C | 44% | 1014.9 hPa | 0 mm | - | - | - |
| 1778192707 | 26.11° C | 46% | 1015 hPa | 0 mm | - | - | - |
| 1778192408 | 26.67° C | 45% | 1015.1 hPa | 0 mm | - | - | - |
| 1778192109 | 26.67° C | 45% | 1015.2 hPa | 0 mm | - | - | - |
| 1778191208 | 26.67° C | 46% | 1015.4 hPa | 0 mm | - | - | - |
| 1778190607 | 26.11° C | 47% | 1015.6 hPa | 0 mm | - | - | - |
| 1778190307 | 26.11° C | 47% | 1015.6 hPa | 0 mm | - | - | - |
| 1778190010 | 26.11° C | 48% | 1015.7 hPa | 0 mm | - | - | - |
| 1778189708 | 26.11° C | 47% | 1015.8 hPa | 0 mm | - | - | - |
| 1778189407 | 25.56° C | 48% | 1015.8 hPa | 0 mm | - | - | - |
| 1778189107 | 25.56° C | 48% | 1015.9 hPa | 0 mm | - | - | - |
| 1778188508 | 25.56° C | 49% | 1016 hPa | 0 mm | - | - | - |
| 1778187308 | 25° C | 49% | 1016.2 hPa | 0 mm | - | - | - |
* Rain latest hour (hover to see other rain measurements)
** Current wind speed in m/s (hover to see current wind gust speed)